SCP
0 0 0 0 0 0 0 0 0 0 0 0 0 0 0 0 0 0 0 0 0 0 0 0 0 0 0 0 0 0 0 0 0 0 0 0 0 0 0 0 0 0 0 0
0 0 0 0 0 0 0 0 0 0 0 0 0 0 0 0 0 0 0 0 0 0 0 0 0 0 0 0 0 0 0 0 0 0 0 0 0 0 0 0 0 0 0 0
0 0 0 0 0 0 0 0 0 0 0 0 0 0 0 0 0 0 0 0 0 0 0 0 0 0 0 0 0 0 0 0 0 0 0 0 0 0 0 0 0 0 0 0
0 0 0 0 0 0 0 0 0 0 0 0 0 0 0 0 0 0 0 0 0 0 0 0 0 0 0 0 0 0 0 0 0 0 0 0 0 0 0 0 0 0 0 0
0 0 0 0 0 0 0 0 0 0 0 0 0 0 0 0 0 0 0 0 0 0 0 0 0 0 0 0 0 0 0 0 0 0 0 0 0 0 0 0 0 0 0 0
0 0 0 0 0 0 0 0 0 0 0 0 0 0 0 0 0 0 0 0 0 0 0 0 0 0 0 0 0 1 1 1 1 0 0 0 0 0 0 0 0 0 0 0
0 0 0 0 0 0 0 0 0 0 0 0 0 0 0 0 0 0 0 0 0 0 0 0 1 1 1 1 1 1 1 1 1 1 0 0 0 0 0 0 0 0 0 0
-0 -0 0 0 0 0 0 0 0 0 0 0 0 0 0 0 0 0 0 0 0 0 0 0 1 1 1 1 1 1 1 1 1 1 1 1 0 0 0 0 0 0 0 0
0 -0 0 0 0 0 0 0 0 0 0 0 0 0 0 0 0 0 0 0 0 0 0 0 0 1 1 1 1 1 1 1 1 1 1 1 0 0 0 0 0 0 0 0
0 0 0 0 0 0 0 0 0 0 0 0 0 0 0 0 0 0 0 0 0 0 0 0 1 1 1 1 1 1 1 1 1 1 1 1 1 0 0 0 0 0 0 0
0 0 0 0 0 0 0 0 0 0 0 0 0 0 0 0 0 0 0 0 0 0 1 1 1 1 1 1 1 1 1 1 1 1 1 1 1 1 1 1 1 1 1 1
0 0 0 0 0 0 0 0 0 0 0 0 0 0 0 0 0 0 0 0 0 0 1 1 1 1 1 1 1 1 1 1 1 1 1 1 1 1 1 1 1 1 1 1
0 0 0 0 0 0 0 0 0 0 0 0 0 0 0 0 0 0 0 0 0 1 1 1 1 1 1 1 1 1 1 1 1 1 1 1 1 1 1 1 1 1 1 1
0 0 0 0 0 0 0 0 0 0 0 0 0 0 0 0 0 0 0 0 1 1 1 1 1 1 1 1 1 1 1 1 1 1 1 1 1 1 1 1 1 1 1 1
0 0 0 0 0 0 0 0 0 0 0 0 0 0 0 0 0 0 1 1 1 1 1 1 1 1 1 1 1 1 1 1 1 1 1 1 1 1 1 1 1 1 1 1
0 0 0 0 0 0 0 0 0 0 0 0 0 0 0 0 0 1 1 1 1 0 1 1 1 1 1 1 1 1 1 1 1 1 1 1 1 1 1 1 1 1 1 1
0 0 0 0 0 0 0 0 0 0 0 0 0 0 0 0 0 1 1 1 1 1 1 1 1 1 1 1 1 1 1 1 1 1 1 1 1 1 1 1 1 1 1 1
0 0 0 0 0 0 0 0 0 0 0 0 0 0 0 0 0 1 1 1 1 1 1 1 1 1 1 1 1 1 2 2 2 2 2 1 1 1 1 1 1 1 1 1
0 0 0 0 0 0 0 0 0 0 0 0 0 0 0 0 0 0 0 1 1 1 1 1 1 1 1 1 1 1 2 2 2 2 2 2 2 2 2 2 2 2 1 1
0 0 0 0 0 0 0 0 0 0 0 0 0 0 0 0 0 0 0 0 0 1 1 1 1 1 1 1 1 1 2 2 2 2 2 2 2 2 2 2 2 2 1 1
0 0 0 0 0 0 0 0 0 0 0 0 0 0 0 0 0 0 0 0 0 1 1 1 1 1 1 1 1 1 1 1 1 2 2 2 2 2 2 1 1 2 2 2
0 0 0 0 0 0 0 0 0 0 0 0 0 0 0 0 0 1 1 1 0 1 1 1 1 1 1 1 1 1 1 1 1 1 1 1 1 1 1 1 1 1 1 1
0 0 0 0 0 0 0 0 0 0 0 0 0 0 0 0 0 1 1 1 0 0 0 1 1 1 1 1 0 1 1 1 1 1 1 1 1 1 1 1 1 1 1 1
0 0 0 0 0 0 0 0 0 0 0 0 0 0 0 0 0 0 0 0 0 0 0 1 1 1 1 1 0 1 1 1 1 1 1 1 1 1 1 1 1 1 1 1
0 0 0 0 0 0 0 0 0 0 0 0 0 0 0 0 0 0 0 0 0 0 0 1 1 1 1 1 1 1 1 1 1 1 1 1 1 1 1 1 1 1 1 1
0 0 0 0 0 0 0 0 0 0 0 0 0 0 0 0 0 0 0 0 0 0 0 1 1 1 1 1 1 1 1 1 1 1 1 1 1 1 1 1 1 0 0 0
Wind_Speed
7 10 10 7 6 7 7 8 6 3 0 5 6 5 5 7 9 9 11 12 12 12 13 12 11 11 10 10 10 9 9 8 6 5 5 5 5 4 4 3 4 4 3 3
9 13 8 4 5 7 9 10 7 3 1 5 6 7 6 8 10 10 11 12 13 13 13 13 13 12 12 12 11 10 10 9 8 6 5 4 4 4 4 3 4 4 3 3
14 5 4 7 8 9 10 10 8 6 4 7 8 9 8 8 10 9 10 11 12 13 14 14 14 14 13 12 12 10 11 10 10 8 6 5 4 4 4 5 4 4 4 4
11 7 6 10 11 11 11 6 7 7 9 7 7 8 7 8 9 10 11 11 12 13 14 14 15 15 14 13 12 12 11 11 10 9 8 8 6 5 5 4 4 5 5 4
9 8 10 12 10 9 8 4 6 9 10 10 9 10 6 7 9 9 10 11 12 13 14 15 16 15 14 14 13 12 12 11 11 11 10 9 7 6 5 4 5 4 5 5
8 5 8 9 8 8 6 6 7 9 10 12 10 11 8 5 6 7 8 9 10 11 13 13 14 14 14 14 13 13 12 12 12 12 11 10 8 7 6 6 5 5 4 4
10 9 7 7 9 8 10 10 8 9 10 9 5 10 7 2 3 5 4 5 8 10 11 12 14 14 15 15 15 14 14 13 12 12 11 10 10 9 8 7 6 6 5 4
10 10 10 8 10 9 11 13 11 10 9 7 6 9 5 1 2 3 4 4 5 8 9 11 13 13 14 15 15 15 14 13 12 12 11 10 10 8 7 7 6 6 4 4
6 6 6 6 8 11 11 12 11 12 13 12 8 6 6 5 5 5 3 3 4 6 7 8 10 12 12 14 14 14 14 13 12 12 11 10 10 8 7 7 7 5 4 4
5 6 5 5 7 8 9 8 8 11 11 12 11 11 7 5 5 4 3 3 3 4 6 8 8 10 11 12 12 13 13 12 12 12 11 9 10 9 8 7 7 6 5 4
8 8 6 7 9 9 9 10 9 10 11 12 11 6 0 3 3 3 2 1 1 3 4 6 7 8 9 10 11 12 12 12 11 11 10 10 9 9 8 7 7 7 6 6
6 8 8 8 4 5 9 10 11 10 10 11 12 8 1 1 2 2 2 1 0 1 3 4 6 7 8 9 10 11 11 12 11 11 10 10 9 9 9 8 8 7 7 7
3 7 8 9 10 8 9 10 11 11 10 11 13 8 3 1 2 2 2 1 1 1 2 4 5 6 7 8 9 9 10 10 10 10 10 10 10 9 9 8 8 7 7 7
6 9 11 11 7 6 9 11 11 13 12 13 14 13 6 4 4 3 3 2 2 2 2 3 4 5 6 6 7 8 8 9 9 10 10 10 10 10 9 8 8 8 7 7
6 9 10 11 9 10 12 12 13 15 15 16 14 13 9 6 5 4 4 4 3 3 3 4 4 5 6 6 7 7 8 8 9 10 10 10 9 9 8 8 8 8 8 8
5 7 8 11 10 12 14 14 14 15 15 16 15 13 7 4 4 3 4 4 5 4 4 4 5 6 6 6 7 7 7 8 8 9 9 9 9 9 8 8 8 8 8 8
6 7 8 11 8 10 14 12 12 13 12 13 13 8 5 4 4 4 4 4 4 4 4 4 4 5 5 6 6 6 6 7 8 8 8 9 9 8 8 8 8 8 8 7
7 8 7 9 8 14 5 1 6 9 9 8 8 6 4 4 4 4 3 3 3 3 2 2 3 3 4 4 5 5 5 6 7 8 8 8 8 8 7 7 7 7 6 6
8 8 8 9 12 13 6 4 5 7 8 4 6 4 3 4 4 3 1 2 3 2 1 1 2 2 3 4 4 5 4 5 6 7 7 7 7 7 7 7 7 6 5 5
7 8 10 10 11 12 4 2 2 7 9 1 3 5 4 4 6 2 2 3 3 2 0 0 1 2 2 3 3 4 4 4 4 5 6 6 6 6 6 6 5 5 5 5
9 9 12 14 13 10 1 1 4 10 3 2 4 5 5 5 5 3 3 3 2 2 1 1 1 2 2 2 3 3 3 3 3 3 4 5 5 5 5 5 5 5 5 4
10 9 10 11 13 8 3 2 5 4 4 4 5 5 5 4 4 3 3 2 2 2 2 2 2 2 2 2 2 3 2 2 2 3 4 4 4 4 4 4 4 4 4 5
8 6 5 6 5 3 3 4 5 6 6 6 6 5 5 5 4 3 2 2 2 2 2 2 2 3 2 2 2 2 2 2 2 3 3 4 4 4 4 4 4 4 4 4
5 4 7 8 6 4 5 6 5 6 7 7 6 6 6 5 4 3 2 2 2 2 2 3 3 3 2 2 2 1 2 2 3 3 3 3 4 4 4 3 3 3 3 3
6 6 8 10 8 7 6 5 6 6 7 7 6 5 5 4 4 3 2 2 2 2 2 2 3 3 3 2 2 1 2 2 3 3 3 3 4 4 4 3 2 2 1 1
8 8 9 8 6 7 7 7 7 7 7 6 6 5 5 5 5 4 3 3 2 2 2 2 3 3 3 2 2 1 2 3 3 3 3 3 3 3 4 4 4 4 3 4
Wind_Direction
199 228 230 234 251 285 292 285 285 300 206 247 248 246 210 194 204 200 196 195 195 195 188 185 189 189 185 185 185 189 191 183 187 187 190 186 187 191 184 183 170 179 192 183
208 231 238 248 249 255 260 266 267 253 206 259 265 257 229 210 213 210 205 200 199 195 189 187 191 191 191 188 189 190 192 188 195 190 194 195 197 197 187 186 167 189 196 207
229 235 207 223 230 244 251 261 274 281 256 234 258 247 219 209 213 215 213 207 203 199 194 190 193 196 195 193 193 194 194 191 197 192 189 186 185 202 187 187 182 190 200 206
237 226 214 230 236 249 254 257 267 263 259 254 252 271 234 210 210 213 212 208 204 200 198 195 195 198 197 195 191 193 193 193 192 192 197 196 197 200 192 189 179 186 196 206
219 217 225 236 243 250 270 284 261 260 263 268 246 262 251 209 223 218 213 208 208 201 200 199 199 198 199 195 191 190 191 193 192 194 196 202 208 204 192 186 179 198 192 204
239 215 236 247 248 247 242 234 240 243 251 251 247 258 257 228 233 229 212 208 209 205 201 200 198 196 197 193 191 189 188 192 192 194 197 202 205 204 199 194 189 196 193 196
218 214 212 232 230 209 222 234 237 232 230 246 225 251 262 263 256 258 241 217 208 204 200 196 197 195 194 192 191 190 189 192 192 194 199 201 204 204 205 206 201 209 203 197
219 213 200 213 235 234 226 240 251 261 261 255 214 246 261 239 250 254 248 222 208 201 200 197 194 193 193 193 192 191 188 189 190 192 197 201 203 206 206 210 216 208 216 209
240 222 180 210 235 245 232 239 260 266 268 273 255 248 242 218 227 228 220 201 199 197 195 192 190 190 191 194 193 191 187 188 190 192 193 197 202 208 208 202 211 214 213 210
259 248 205 194 213 222 257 252 243 251 258 261 256 248 246 227 234 230 223 210 196 193 190 187 185 187 189 191 191 190 188 190 191 192 195 194 198 202 205 207 206 210 208 211
253 245 218 205 220 220 212 227 241 253 258 264 266 262 2 245 244 247 236 224 198 186 180 180 179 182 185 185 185 186 187 190 192 193 194 197 194 196 199 202 204 205 206 202
233 250 244 233 223 264 242 239 236 247 249 255 270 272 94 260 277 269 276 260 182 178 179 179 176 176 181 185 185 186 188 189 191 189 190 193 192 193 196 198 203 206 207 209
226 244 237 223 199 205 230 234 241 252 256 254 258 259 147 187 257 269 279 265 213 189 186 182 178 178 181 185 186 186 189 187 186 186 188 191 194 193 196 198 200 205 208 211
252 247 252 258 264 235 234 236 238 246 251 255 257 270 265 258 270 283 283 267 238 218 208 199 187 185 182 183 185 185 186 184 185 188 189 191 195 195 195 196 198 201 206 211
247 246 252 266 273 263 252 248 243 246 257 265 269 272 281 290 287 276 271 261 244 229 217 208 200 193 188 186 186 185 186 187 189 190 191 193 193 193 195 197 200 202 205 210
247 260 257 254 255 257 255 252 247 248 254 261 268 269 295 313 290 266 256 249 241 235 226 220 208 198 198 196 193 185 189 188 189 194 194 192 191 191 195 196 197 201 205 210
236 243 256 255 249 256 246 243 243 243 249 260 266 282 310 293 285 272 263 251 250 247 234 231 225 211 203 200 194 189 191 190 190 194 194 192 193 195 198 199 198 202 206 209
235 244 249 259 251 248 257 300 260 256 256 268 276 288 300 308 302 291 281 275 272 267 250 240 228 209 201 195 185 186 184 191 195 195 193 191 193 197 199 203 205 206 207 209
237 233 247 249 249 253 236 220 248 254 252 267 276 285 300 309 275 240 289 296 272 261 245 250 241 215 184 181 176 175 178 183 192 194 193 193 193 196 198 202 203 204 207 210
205 223 240 240 253 254 241 136 269 262 242 226 278 278 281 273 262 254 308 288 277 258 202 211 193 168 155 160 164 167 169 171 183 189 189 188 190 191 196 199 199 199 203 212
204 213 232 242 247 252 329 356 252 246 274 354 295 279 268 268 296 315 286 271 249 225 184 179 149 138 136 147 155 159 160 169 179 182 176 180 183 184 191 190 195 197 200 202
233 229 227 239 244 242 59 278 264 313 332 306 299 292 284 288 292 279 271 245 214 197 175 167 146 134 133 147 156 157 153 150 159 168 172 179 185 189 181 178 188 194 194 194
243 266 260 248 264 359 336 301 308 303 294 294 293 290 275 272 269 263 257 233 213 190 177 184 165 147 150 162 170 167 150 157 160 161 166 172 179 184 186 186 184 191 198 202
236 268 265 262 255 280 291 294 297 300 299 294 287 280 269 264 260 256 247 231 202 188 185 188 172 161 160 163 165 171 161 157 154 156 166 169 170 175 175 185 188 199 199 198
276 256 253 258 269 276 269 286 292 299 297 294 287 279 268 259 259 255 235 231 216 193 194 190 177 170 169 163 157 170 162 163 162 162 172 175 169 167 166 167 165 194 172 185
245 251 258 269 286 284 291 302 298 294 292 291 286 282 273 260 256 244 228 224 215 207 201 188 172 163 155 148 153 169 170 170 171 171 179 182 174 167 169 162 146 81 87 90